Location: Newark
(40.4747°S, 176.7700°E)
Time: 07:32:56
(UTC+00:00)

LightSail 2 - Visible Passes

Search period start: 25 January 2020 00:00
Search period end: 04 February 2020 00:00
Orbit: 704 x 719 km, 24.0° (Epoch: 24 January)

Date Brightness Start Highest point End Pass type
(mag) Time Alt. Az. Time Alt. Az. Time Alt. Az.
25 Jan 7.3 16:24:03 10° N 16:25:16 11° N 16:26:28 10° NNE visible
27 Jan 7.2 16:11:26 10° NNW 16:13:23 12° N 16:15:20 10° NNE visible
28 Jan 7.4 15:16:29 10° NNE 15:16:29 10° NNE 15:16:47 10° NNE visible
29 Jan 7.1 16:00:36 12° NNW 16:01:28 12° N 16:03:28 10° NNE visible
31 Jan 7.2 15:50:08 11° N 15:50:08 11° N 15:50:54 10° N visible
